User: anonymous
Location: Columbia
(38.9520°N, 92.3340°W)
Time: 22:47:07
(UTC-05:00)
Language:

FENGYUN 3A - Orbit

View from above orbital plane
View from above orbital plane
View from above satellite
View from above satellite

Ground track
Ground track

The orbit data is extracted from the following two-line orbital elements,

1 32958U 08026A   14261.73760415  .00000114  00000-0  73972-4 0  3600
2 32958 098.5447 317.3770 0009212 310.1080 049.9284 14.19470980327114
Epoch (UTC): 18 September 2014 17:42:08
Eccentricity: 0.0009212
inclination: 98.5447°
perigee height: 820 km
apogee height: 834 km
right ascension of ascending node: 317.3770°
argument of perigee: 310.1080°
revolutions per day: 14.19470980
mean anomaly at epoch: 49.9284°
orbit number at epoch: 32711

The dashed part of the orbit path shows where the satellite is in the earth's shadow,  

DLR